Weather in Belovodye

Russia / Ulyanovsk Oblast     54°15′29″N   46°36′59″E
temp.,
°C
wind,
m/s
gust,
m/s
humid.,
%
clouds,
%
prec.,
mm/h
press.,
hPa
HPBL,
m
19 april, mon
mon1901:00+7ene6127292 0.0 1022535
04:00+4ene51170100 0.0 1022420
07:00+4ene51266100 0.0 1023511
10:00+6ene71057100 0.0 1024739
13:00+7ene81048100 0.0 10231081
16:00+9ene8105076 0.0 10231422
19:00+7e71159100 0.0 10231061
22:00+5e7126489 0.0 1025780
20 april, tue
tue2001:00+4e714655 0.0 1025776
04:00+3ese6146637 0.0 1025750
07:00+3e7146794 0.0 1025777
10:00+6ese8124926 0.0 10261000
13:00+8ese8124588 0.0 10251185
16:00+10ese91241100 0.0 10241385
19:00+8ese81445100 0.0 10221174
22:00+7ese91646100 0.0 10211027
21 april, wed
wed2101:00+6se91849100 0.0 1019950
04:00+5se102054100 0.4 10171003
07:00+4se102180100 0.6 1015945
10:00+4se91983100 2.3 1016927
13:00+6sse91783100 0.1 1016847
16:00+6sse71585100 0.1 1017723
19:00+5sse6138999 0.0 1018551
22:00+4sse61392100 0.1 1019501
22 april, thu
thu2201:00+4sse5129295 0.2 1019462
04:00+5sse3995100 0.2 1020404
07:00+5s3994100 0.1 1021406
10:00+8ssw5881100 0.1 1021619
13:00+13ssw695571 0.2 10211705
16:00+15wsw68396 0.4 10212216
19:00+13sw24525 0.0 102270
22:00+8s22651 0.0 102313
23 april, fri
fri2301:00+6s22855 0.0 102426
04:00+5s22935 0.0 102428
07:00+6sse23905 0.0 102477
10:00+12sse226115 0.0 1023577
13:00+16e214254 0.0 10222020
16:00+14ese3450100 0.0 1021684
19:00+12se376489 0.1 1021327
22:00+9se387653 0.1 1021236